Location: Milton Keynes
(52.0316°N, 0.7531°W)
Time: 01:10:23
(UTC+00:00)

ISS - Visible Passes

Search period start: 25 March 2019 00:00
Search period end: 04 April 2019 01:00
Orbit: 408 x 411 km, 51.6° (Epoch: 24 March)

Date Brightness Start Highest point End Pass type
(mag) Time Alt. Az. Time Alt. Az. Time Alt. Az.
25 Mar -3.0 19:16:05 10° SW 19:19:07 34° SSE 19:21:38 13° E visible
25 Mar -2.7 20:52:11 10° W 20:54:25 39° WSW 20:54:25 39° WSW visible
26 Mar -3.9 20:01:33 10° WSW 20:04:51 69° SSE 20:05:59 37° E visible
26 Mar -0.9 21:38:05 10° W 21:38:45 15° W 21:38:45 15° W visible
27 Mar -3.6 19:10:58 10° WSW 19:14:12 55° SSE 19:17:27 10° E visible
27 Mar -3.4 20:47:25 10° W 20:50:13 61° W 20:50:13 61° W visible
28 Mar -3.9 19:56:43 10° W 20:00:02 84° S 20:01:37 29° E visible
28 Mar -1.3 21:33:18 10° W 21:34:22 19° W 21:34:22 19° W visible
29 Mar -3.8 19:06:02 10° WSW 19:09:20 76° S 19:12:39 10° E visible
29 Mar -3.8 20:42:36 10° W 20:45:43 72° SW 20:45:43 72° SW visible
30 Mar -3.9 19:51:52 10° W 19:55:12 84° S 19:57:01 24° E visible
30 Mar -1.5 21:28:30 10° W 21:29:46 20° W 21:29:46 20° W visible
31 Mar -3.6 21:37:44 10° W 21:40:59 55° SSW 21:41:03 55° SSW visible
01 Apr -3.7 20:46:59 10° W 20:50:18 70° SSW 20:52:20 21° ESE visible
01 Apr -1.4 22:23:47 10° W 22:25:05 18° WSW 22:25:05 18° WSW visible
02 Apr -2.8 21:32:53 10° W 21:35:56 34° SSW 21:36:21 33° S visible
03 Apr -3.2 20:42:04 10° W 20:45:16 47° SSW 20:47:39 16° SE visible
03 Apr -1.1 22:19:34 10° WSW 22:20:24 12° WSW 22:20:24 12° WSW visible
